Regional Weather Roundup
Issued by NWS

Home | Current Version | Previous Version | Graphics & Text | Print | Product List | Glossary On
Versions: 1 2 3 4 5 6 7 8 9 10 11 12 13 14 15 16 17 18 19 20 21 22 23 24 25 26 27 28 29 30 31 32 33 34 35 36 37 38 39 40 41 42 43 44 45 46 47 48 49 50
000
ASUS45 KABQ 172301
RWRNM
NEW MEXICO REGIONAL WEATHER ROUNDUP
NATIONAL WEATHER SERVICE ALBUQUERQUE NM
400 PM MST TUE JAN 17 2017

NOTE: "FAIR" MEANS FEW OR NO CLOUDS BELOW 12,000 FEET AGL WITH NO
       SIGNIFICANT WEATHER OR OBSTRUCTIONS TO VISION.

      THIS PRODUCT IS RELEASED AS TWO VERSIONS.  ONE VERSION NEAR
      THE TOP OF THE HOUR CONTAINING PRELIMINARY DATA FROM ALBUQUERQUE
      AND OTHER STATIONS.  A FINAL VERSION WITH ADDITIONAL DATA IS
      ISSUED ABOUT 10 MINUTES AFTER THE HOUR.

NMZ501-503-504-510>518-180000-
NORTHWEST PLATEAU/NORTHCENTRAL MOUNTAINS

CITY           SKY/WX    TMP DP  RH WIND       PRES   REMARKS
FARMINGTON     FAIR      44  31  60 W5        30.11F
LOS ALAMOS     FAIR      38  30  73 N3        30.11F
SANTA FE       FAIR      44  29  55 N12       30.08S
TAOS           FAIR      37  21  52 W3        30.11S
ANGEL FIRE     PTSUNNY   33  22  65 W7        30.10S WCI  26

$$
NMZ402-403-502-505>509-180000-
WESTCENTRAL MOUNTAINS/SOUTHWEST MOUNTAINS

CITY           SKY/WX    TMP DP  RH WIND       PRES   REMARKS
GALLUP         PTSUNNY   42  33  70 N13       30.11R
GRANTS         FAIR      42  31  63 SW3       30.12S
SILVER CITY    CLOUDY    47  33  57 E6        30.08S

$$
NMZ407-409-411-412-180000-
SOUTHERN DESERTS

CITY           SKY/WX    TMP DP  RH WIND       PRES   REMARKS
DEMING         LGT RAIN  46  42  86 E5        30.08R
LAS CRUCES     CLOUDY    46  43  90 SE3       30.10R
HOLLOMAN AFB   CLOUDY    50  41  72 S9        30.11R
ALAMOGORDO     TSTM      46  43  87 S12       30.10R
T OR C         FAIR      52  34  50 N3        30.07R

$$
NMZ519>523-180000-
CENTRAL VALLEYS/CENTRAL HIGHLANDS

CITY           SKY/WX    TMP DP  RH WIND       PRES   REMARKS
ALBUQUERQUE    PTSUNNY   49  33  54 W7        30.09S
DOUBLE EAGLE   PTSUNNY   46  34  61 SW6       30.10S
MORIARTY ARPT  FAIR      42  31  63 CALM      30.10S
CLINES CORNERS NOT AVBL
BELEN          FAIR      47  33  57 CALM      30.09S
SOCORRO        CLOUDY    49  34  58 NW6       30.09R

$$
NMZ524>526-539-540-180000-
SOUTHCENTRAL MOUNTAINS

CITY           SKY/WX    TMP DP  RH WIND       PRES   REMARKS
RUIDOSO        NOT AVBL

$$
NMZ527>531-180000-
NORTHEAST HIGHLANDS/NORTHEAST PLAINS

CITY           SKY/WX    TMP DP  RH WIND       PRES   REMARKS
LAS VEGAS      FAIR      39  32  76 S12       30.04F WCI  32
RATON          FAIR      35  27  72 SE6       30.04F WCI  30
CLAYTON        FAIR      46  37  71 W9        30.02S

$$
NMZ532>537-180000-
EASTCENTRAL PLAINS

CITY           SKY/WX    TMP DP  RH WIND       PRES   REMARKS
TUCUMCARI      FAIR      53  35  50 W8        30.03S
CANNON AFB     CLOUDY    51  39  63 W9        30.07R
CLOVIS AIRPORT CLOUDY    52  36  54 S7        30.07R

$$
NMZ028-029-538-180000-
SOUTHEAST PLAINS

CITY           SKY/WX    TMP DP  RH WIND       PRES   REMARKS
ROSWELL        CLOUDY    50  35  56 E5        30.06F
ARTESIA        RAIN      46  45  93 SW8       30.10R
CARLSBAD       CLOUDY    47  38  71 CALM      30.09R
HOBBS          PTSUNNY   48  41  76 E8        30.09R


$$



USA.gov is the U.S. government's official web portal to all federal, state and local government web resources and services.